星链-1136 (STARLINK-1136 )

导读

STARLINK-1136是美国太空探索技术公司(SpaceX)星链(Starlink)卫星互联网项目中的一颗卫星,于2020年1月29日发射升空,属于星链低轨星座的早期组网卫星,主要任务是为全球提供高速低延迟的卫星互联网接入服务,助力星链星座完成全球覆盖的组网布局。

基本信息
目录编号:
45089
目录名称:
STARLINK-1136
国际标识:
2020-006AX
轨道中心:
EARTH
卫星名称:
星链-1136
卫星全名:
星链-1136 (STARLINK-1136 )
卫星状态:
已陨落 最后检测时间 2025-01-17
发射日期:
2020-01-29 UTC
国别 :
美国 (US)
星等 :
--
该卫星已列入 空间交会检测服务 Space Conjunction Data Service (SCDS) ,当前飞行风险评估等级: 无高风险
轨道信息
数据来源 国际轨道数据
星历时间: 2025-01-15T12:34:38+0800
轨道信息已过期606天
半长轴: 6588.314km
偏心率: 0.0004751
轨道倾角: 53.039°
近地点辐角 209.350°
升交点赤经 295.077°
平近点角 263.279°
近地点: 207.048km
远地点: 213.31km
周期: 88.699分钟
每日圈数: 16.234592
详细信息
固有亮度:
5
最大亮度:
2.5
卫星平台:
Starlink V1.0
覆盖范围:
全球
运营商:
太空探索技术公司
运营商所在国:
美国
制造商(研发单位):
太空探索技术公司
制造商所在国:
美国
使用方式:
暂无
卫星简介
星链(Starlink)计划是由太空探索技术公司(SpaceX)提出的一个巨型低轨卫星互联网星座项目,计划在2019年至2024年间在太空搭建由约1.2万颗卫星组成的“星链”网络,其中1584颗将部署在地球上空550千米处的近地轨道,并从2020年开始工作。该卫星仍在工作。
与全量物体交会距离演化趋势
与全量物体交会风险概率演化趋势